Home   Weather   Rae-Edzo   Past weeks

Flag for Canada Past Weather in Rae-Edzo, Northwest Territories, Canada — Yesterday and Last 2 Weeks

Now
56 °F

Cool.


Feels Like: 55 °F
Forecast: 43 / 57 °F
Wind: 7 mph from Northwest

Location: Lac La Martre

Current Time: Aug 30, 2016 at 2:55:28 PM

Latest Report: Aug 30, 2016 at 2:00 PM


Visibility: N/A

Pressure: 30.41 "Hg

Humidity: 64%

Dew Point: 44 °F

Location of Rae-EdzoLocation

Past Weather in Rae-Edzo — Graph

°F

Rae-Edzo Temperature Yesterday

Maximum temperature yesterday: 57 °F (at 5:00 PM)
Minimum temperature yesterday: 39 °F (at 11:00 PM)
Average temperature yesterday: 49 °F

High & Low Weather Summary for the Past Weeks

 TemperatureHumidityPressure
High81 °F (Aug 23, 6:00 PM)100% (Aug 28, 8:00 AM)30.42 "Hg (Aug 28, 8:00 AM)
Low31 °F (Aug 30, 5:00 AM)26% (Aug 23, 4:00 PM)29.66 "Hg (Aug 15, 1:00 PM)
Average58 °F68%29.99 "Hg
* Reported Aug 15 1:00 PM — Aug 30 1:00 PM, Rae-Edzo, Weather by CustomWeather, © 2016

Note: Actual official high and low records may vary slightly from our data, if they occured in-between our weather recording intervals... More about our weather records

Advertising

Rae-Edzo Weather History for the Previous 24 Hours

Scroll right to see more
 ConditionsComfort  
Time TempWeatherWind HumidityBarometerVisibility
1:00 PM
Tue, Aug 30
57 °FRefreshingly cool.7 mph60%30.42 "HgN/A
12:00 PM54 °FCool.2 mph65%30.42 "HgN/A
11:00 AM55 °FCool.3 mph62%30.42 "HgN/A
10:00 AM53 °FCool.3 mph73%30.42 "HgN/A
9:00 AM48 °FCool.No windN/A30.42 "HgN/A
8:00 AM39 °FChilly.No windN/A30.42 "HgN/A
7:00 AM33 °FChilly.No wind93%30.42 "HgN/A
6:00 AM34 °FChilly.1 mphN/A30.42 "HgN/A
5:00 AM31 °FChilly.1 mph98%30.42 "HgN/A
4:00 AM32 °FChilly.2 mph100%30.42 "HgN/A
3:00 AM32 °FChilly.No wind100%30.41 "HgN/A
2:00 AM34 °FChilly.3 mph97%30.40 "HgN/A
1:00 AM34 °FChilly.2 mph96%30.39 "HgN/A
12:00 AM36 °FChilly.3 mph96%30.39 "HgN/A
11:00 PM
Mon, Aug 29
39 °FChilly.3 mph93%30.37 "HgN/A
10:00 PM44 °FQuite cool.3 mph89%30.36 "HgN/A
9:00 PM51 °FCool.2 mph71%30.35 "HgN/A
8:00 PM55 °FCool.7 mph62%30.34 "HgN/A
7:00 PM54 °FCool.5 mph65%30.34 "HgN/A
6:00 PM54 °FCool.3 mph74%30.34 "HgN/A
5:00 PM57 °FCool.3 mph66%30.33 "HgN/A
4:00 PM53 °FCool.7 mph78%30.34 "HgN/A
3:00 PM55 °FCool.3 mph74%30.32 "HgN/A
2:00 PM56 °FCool.5 mph62%30.31 "HgN/A
Weather by CustomWeather, © 2016

See weather overviewHow to use our weather pages